Home   Weather   Summerside   Past weeks

Flag for Canada Past Weather in Summerside, Prince Edward Island, Canada — Yesterday and Last 2 Weeks

Now
58 °F

Cool.


Feels Like: 54 °F
Forecast: 51 / 61 °F
Wind: 18 mph from South

Location: Summerside Airport

Current Time: Apr 27, 2017 at 10:28:14 am

Latest Report: Apr 27, 2017 at 9:00 am


Visibility: N/A

Pressure: 30.09 "Hg

Humidity: 94%

Dew Point: 56 °F

Location of SummersideLocation

Past Weather in Summerside — Graph

°F

Summerside Temperature Yesterday

Maximum temperature yesterday: 55 °F (at 6:00 pm)
Minimum temperature yesterday: 41 °F (at 12:00 am)
Average temperature yesterday: 49 °F

High & Low Weather Summary for the Past Weeks

 TemperatureHumidityPressure
High58 °F (Apr 27, 9:00 am)100% (Apr 13, 4:00 am)30.67 "Hg (Apr 13, 4:00 am)
Low20 °F (Apr 19, 6:00 am)30% (Apr 15, 2:00 pm)29.65 "Hg (Apr 16, 2:00 pm)
Average39 °F77%30.17 "Hg
* Reported Apr 12 9:00 am — Apr 27 9:00 am, Summerside, Weather by CustomWeather, © 2017

Note: Actual official high and low records may vary slightly from our data, if they occured in-between our weather recording intervals... More about our weather records

Advertising

Summerside Weather History for the Previous 24 Hours

Scroll right to see more
 ConditionsComfort  
Time TempWeatherWind HumidityBarometerVisibility
9:00 am
Thu, Apr 27
58 °FCool.18 mph94%30.09 "HgN/A
8:00 am57 °FCool.16 mph94%30.09 "HgN/A
7:00 am54 °FCool.14 mph96%30.09 "HgN/A
6:00 am53 °FCool.13 mph95%30.09 "HgN/A
5:00 am54 °FCool.13 mph95%30.09 "HgN/A
4:00 am53 °FCool.15 mph95%30.09 "HgN/A
3:00 am52 °FCool.16 mph96%30.09 "HgN/A
2:00 am54 °FCool.16 mph93%30.09 "HgN/A
1:00 am53 °FCool.15 mph95%30.10 "HgN/A
12:00 am51 °FCool.15 mph100%30.11 "HgN/A
11:00 pm
Wed, Apr 26
53 °FCool.13 mph94%30.12 "HgN/A
10:00 pm54 °FCool.14 mph94%30.12 "HgN/A
9:00 pm54 °FCool.15 mph94%30.12 "HgN/A
8:00 pm54 °FCool.17 mph94%30.11 "HgN/A
7:00 pm54 °FCool.21 mph92%30.11 "HgN/A
6:00 pm55 °FCool.18 mph91%30.11 "HgN/A
5:00 pm53 °FCool.21 mph92%30.12 "HgN/A
4:00 pm52 °FCool.15 mph89%30.14 "HgN/A
3:00 pm52 °FCool.17 mph94%30.16 "HgN/A
2:00 pm51 °FCool.17 mph94%30.18 "HgN/A
1:00 pm51 °FCool.15 mph92%30.21 "HgN/A
12:00 pm52 °FCool.18 mph85%30.23 "HgN/A
11:00 am50 °FCool.20 mph87%30.25 "HgN/A
10:00 am49 °FCool.17 mph82%30.25 "HgN/A
Weather by CustomWeather, © 2017

See weather overviewHow to use our weather pages